Simultaneous Nadir Overpasses (SNOs) Predictions

Prediction of SNOs between METOP-B and TERRA Satellite Orbit:

Table of predicted SNOs for the next 14.0 days since TLE Epoch: 8/4/2015
Index Date (METOP-B) Time (METOP-B) Lat,Lon (METOP-B) SZA (METOP-B ) Date (TERRA) Time (TERRA) Lat,Lon (TERRA) SZA (TERRA ) Distance(km) Time Diff (sec)
1 08/04/2015 22:08:17 81.31,-104.75 66.90 08/04/2015 22:09:00 81.31,-104.67 66.93 1.30 43
2 08/04/2015 22:58:57 -81.32, 62.98 113.05 08/04/2015 22:58:27 -81.31, 62.87 113.08 1.96 30
3 08/07/2015 17:42:38 81.31, -38.19 67.69 08/07/2015 17:43:14 81.31, -38.21 67.71 0.44 36
4 08/07/2015 18:33:19 -81.31, 129.19 112.30 08/07/2015 18:32:41 -81.31, 129.36 112.30 2.93 38
5 08/10/2015 13:16:59 81.31, 27.95 68.47 08/10/2015 13:17:27 81.31, 28.14 68.51 3.21 28
6 08/1
